Regional Weather Roundup
Issued by NWS

Home | Current Version | Previous Version | Graphics & Text | Print | Product List | Glossary On
Versions: 1 2 3 4 5 6 7 8 9 10 11 12 13 14 15 16 17 18 19 20 21 22 23 24 25 26 27 28 29 30 31 32 33 34 35 36 37 38 39 40 41 42 43 44 45 46 47 48 49 50
000
ASUS43 KFSD 050402
RWRSD

WEATHER ROUNDUP FOR SOUTH DAKOTA
NATIONAL WEATHER SERVICE SIOUX FALLS SD
1100 PM CDT SAT JUL 04 2015

NOTE: "FAIR" INDICATES FEW OR NO CLOUDS BELOW 12,000 FEET WITH NO
SIGNIFICANT WEATHER AND/OR OBSTRUCTIONS TO VISIBILITY.


SDZ001>005-009-010-012>017-050500-
NORTHWEST AND NORTH CENTRAL SOUTH DAKOTA

CITY           SKY/WX    TMP DP  RH WIND       PRES   REMARKS
BUFFALO          N/A     75  52  44 SE9       29.73R
FAITH            N/A     77  62  59 SE9       29.78R
MOBRIDGE       MOCLDY    77  72  84 E10       29.73S
$$

SDZ012>016-024>037-041>051-057-063-072>074-050500-
SOUTHWEST AND SOUTH CENTRAL SOUTH DAKOTA

CITY           SKY/WX    TMP DP  RH WIND       PRES   REMARKS
RAPID CTY ARPT PTCLDY    70  65  84 CALM      29.82R
PIERRE         CLOUDY    81  68  64 S15       29.71F
CUSTER         CLEAR     67  54  63 CALM      30.02R
ELLSWORTH AFB  PTCLDY    77  65  67 W6        29.82R
PHILIP         CLEAR     77  63  61 S13       29.75S
PINE RIDGE     MOCLDY    74  65  73 SE5       29.85R
WINNER         FAIR      82  64  54 S16       29.79R
$$

SDZ004>011-016>023-039-040-050500-
NORTHEAST SOUTH DAKOTA

CITY           SKY/WX    TMP DP  RH WIND       PRES   REMARKS
ABERDEEN       LGT RAIN  76  66  71 S13       29.80R
WATERTOWN      MOCLDY    72  65  78 S8        29.88R
BROOKINGS      PTCLDY    70  63  78 SE8       29.91S
SISSETON         N/A     73  65  75 S8        29.82R
$$

SDZ017-020-022-023-036>040-048>070-050500-
SOUTHEAST SOUTH DAKOTA

CITY           SKY/WX    TMP DP  RH WIND       PRES   REMARKS
SIOUX FALLS    PTCLDY    74  63  68 S14       29.90R
HURON          CLOUDY    74  66  76 SE13G21   29.80R
CHAMBERLAIN    CLOUDY    76  69  79 S13       29.79S
MITCHELL       MOCLDY    75  67  76 SE14      29.83R
YANKTON        CLEAR     72  64  78 SE8       29.87R
$$

ABBREVIATIONS USED IN REMARKS
   TC - TEMPERATURE IN CELSIUS
  WCI - WIND CHILL INDEX
   HX - HEAT INDEX
  VSB - VISIBILITY




USA.gov is the U.S. government's official web portal to all federal, state and local government web resources and services.